| time (UTC) | temp C | wind direction | speed KPH | gust KPH | rain 1hr cm | rain 24hr cm | rain mn cm | humidity % | barometer mb |
| 20260505140346 | 15 | 94 | 0.0 | 0.0 | 0.00 | 0.48 | 0.48 | 91 | 1011.4 |
| 20260505130309 | 15 | 123 | 0.0 | 0.0 | 0.00 | 0.48 | 0.48 | 93 | 1011.0 |
| 20260505124800 | 15 | 125 | 0.0 | 0.0 | 0.00 | 0.48 | 0.48 | 94 | 1010.6 |
| 20260505124256 | 15 | 125 | 0.0 | 0.0 | 0.18 | 0.48 | 0.48 | 94 | 1010.9 |
| 20260505123752 | 15 | 126 | 0.0 | 0.0 | 0.18 | 0.48 | 0.48 | 93 | 1010.6 |
| 20260505123249 | 15 | 125 | 0.0 | 0.0 | 0.00 | 0.46 | 0.46 | 93 | 1010.6 |
| 20260505122745 | 15 | 126 | 0.0 | 0.0 | 0.00 | 0.46 | 0.46 | 93 | 1010.5 |
| 20260505122243 | 15 | 126 | 0.0 | 0.0 | 0.00 | 0.46 | 0.46 | 93 | 1010.4 |
| 20260505121739 | 15 | 111 | 0.0 | 0.0 | 0.00 | 0.46 | 0.46 | 93 | 1010.4 |
| 20260505121236 | 15 | 111 | 0.0 | 0.0 | 0.00 | 0.46 | 0.46 | 93 | 1010.3 |
| 20260505120732 | 14 | 111 | 0.0 | 0.0 | 0.00 | 0.46 | 0.46 | 93 | 1010.2 |
| 20260505120228 | 14 | 111 | 0.0 | 0.0 | 0.00 | 0.46 | 0.46 | 93 | 1010.4 |
| 20260505115727 | 14 | 112 | 1.6 | 1.6 | 0.00 | 0.46 | 0.46 | 94 | 1010.4 |
| 20260505115225 | 14 | 111 | 0.0 | 0.0 | 0.18 | 0.46 | 0.46 | 93 | 1010.3 |
| 20260505114722 | 14 | 111 | 0.0 | 0.0 | 0.18 | 0.46 | 0.46 | 93 | 1010.1 |
| 20260505114218 | 14 | 111 | 0.0 | 0.0 | 0.00 | 0.43 | 0.43 | 93 | 1010.1 |
| 20260505113715 | 14 | 111 | 0.0 | 0.0 | 0.00 | 0.43 | 0.43 | 93 | 1010.1 |
| 20260505113212 | 14 | 111 | 0.0 | 0.0 | 0.00 | 0.43 | 0.43 | 92 | 1010.4 |
| 20260505112708 | 14 | 111 | 0.0 | 0.0 | 0.00 | 0.43 | 0.43 | 92 | 1010.6 |
| 20260505112206 | 14 | 97 | 0.0 | 0.0 | 0.00 | 0.43 | 0.43 | 92 | 1010.6 |
| 20260505111705 | 14 | 97 | 0.0 | 0.0 | 0.00 | 0.43 | 0.43 | 92 | 1010.3 |
| 20260505111201 | 14 | 96 | 0.0 | 0.0 | 0.13 | 0.43 | 0.43 | 91 | 1010.3 |
| 20260505110658 | 14 | 96 | 0.0 | 0.0 | 0.13 | 0.43 | 0.43 | 91 | 1010.5 |
| 20260505110155 | 14 | 106 | 0.0 | 0.0 | 0.00 | 0.41 | 0.41 | 91 | 1010.9 |
| 20260505102131 | 14 | 69 | 1.6 | 1.6 | 0.13 | 0.38 | 0.38 | 92 | 1011.3 |
| 20260505101629 | 14 | 72 | 0.0 | 1.6 | 0.00 | 0.36 | 0.36 | 92 | 1011.5 |
| 20260505101125 | 14 | 66 | 1.6 | 1.6 | 0.00 | 0.36 | 0.36 | 92 | 1011.5 |
| 20260505100621 | 14 | 79 | 0.0 | 0.0 | 0.00 | 0.36 | 0.36 | 92 | 1011.7 |
| 20260505100119 | 14 | 69 | 1.6 | 1.6 | 0.00 | 0.36 | 0.36 | 92 | 1011.5 |
| 20260505095615 | 14 | 62 | 0.0 | 0.0 | 0.00 | 0.36 | 0.36 | 92 | 1012.0 |
| 20260505095111 | 14 | 47 | 3.2 | 4.8 | 0.18 | 0.36 | 0.36 | 92 | 1012.0 |
| 20260505094608 | 14 | 68 | 0.0 | 0.0 | 0.18 | 0.36 | 0.36 | 91 | 1011.8 |
| 20260505094104 | 14 | 85 | 1.6 | 1.6 | 0.13 | 0.33 | 0.33 | 92 | 1012.0 |
| 20260505093600 | 14 | 99 | 6.4 | 9.7 | 0.13 | 0.33 | 0.33 | 92 | 1011.4 |
| 20260505093058 | 15 | 81 | 3.2 | 3.2 | 0.18 | 0.30 | 0.30 | 92 | 1011.8 |
| 20260505092555 | 14 | 74 | 4.8 | 4.8 | 0.18 | 0.30 | 0.30 | 92 | 1012.6 |
| 20260505092054 | 14 | 81 | 3.2 | 3.2 | 0.13 | 0.28 | 0.28 | 92 | 1012.5 |
| 20260505091550 | 14 | 71 | 4.8 | 4.8 | 0.13 | 0.28 | 0.28 | 92 | 1012.1 |
| 20260505091049 | 14 | 90 | 3.2 | 9.7 | 0.18 | 0.25 | 0.25 | 92 | 1012.4 |
| 20260505090546 | 15 | 89 | 3.2 | 3.2 | 0.18 | 0.25 | 0.25 | 91 | 1012.4 |
| 20260505090044 | 15 | 84 | 4.8 | 4.8 | 0.00 | 0.23 | 0.23 | 91 | 1012.8 |
| 20260505085541 | 15 | 108 | 3.2 | 3.2 | 0.00 | 0.23 | 0.23 | 91 | 1012.8 |
| 20260505085039 | 15 | 105 | 4.8 | 4.8 | 0.00 | 0.23 | 0.23 | 91 | 1012.8 |
| 20260505084537 | 15 | 89 | 4.8 | 11.3 | 0.13 | 0.23 | 0.23 | 92 | 1012.8 |
| 20260505084035 | 15 | 98 | 3.2 | 3.2 | 0.13 | 0.23 | 0.23 | 92 | 1013.1 |
| 20260505083532 | 15 | 103 | 3.2 | 3.2 | 0.00 | 0.20 | 0.20 | 92 | 1013.3 |
| 20260505083029 | 15 | 83 | 1.6 | 1.6 | 0.00 | 0.20 | 0.20 | 92 | 1013.4 |
| 20260505082524 | 15 | 114 | 1.6 | 3.2 | 0.00 | 0.20 | 0.20 | 93 | 1013.8 |
| 20260505082021 | 15 | 86 | 1.6 | 1.6 | 0.18 | 0.20 | 0.20 | 93 | 1013.6 |
| 20260505081518 | 15 | 92 | 1.6 | 1.6 | 0.18 | 0.20 | 0.20 | 93 | 1013.8 |
| 20260505081015 | 15 | 110 | 0.0 | 1.6 | 0.13 | 0.18 | 0.18 | 93 | 1013.9 |
| 20260505080511 | 15 | 113 | 3.2 | 3.2 | 0.13 | 0.18 | 0.18 | 93 | 1014.0 |
| 20260505080008 | 15 | 101 | 1.6 | 1.6 | 0.18 | 0.15 | 0.15 | 93 | 1014.0 |
| 20260505075504 | 15 | 126 | 3.2 | 3.2 | 0.36 | 0.15 | 0.15 | 93 | 1014.2 |
| 20260505075001 | 15 | 97 | 0.0 | 0.0 | 0.30 | 0.13 | 0.13 | 93 | 1014.3 |
| 20260505074458 | 15 | 86 | 1.6 | 3.2 | 0.13 | 0.10 | 0.10 | 93 | 1014.4 |
| 20260505073955 | 15 | 88 | 0.0 | 0.0 | 0.13 | 0.10 | 0.10 | 92 | 1014.6 |
| 20260505073452 | 15 | 88 | 0.0 | 1.6 | 0.18 | 0.08 | 0.08 | 92 | 1014.6 |
| 20260505072950 | 15 | 88 | 1.6 | 1.6 | 0.18 | 0.08 | 0.08 | 92 | 1014.5 |
| 20260505072446 | 15 | 88 | 0.0 | 0.0 | 0.13 | 0.05 | 0.05 | 93 | 1014.3 |
| 20260505071942 | 15 | 88 | 0.0 | 0.0 | 0.30 | 0.05 | 0.05 | 92 | 1014.3 |
| 20260505071438 | 15 | 88 | 0.0 | 0.0 | 0.18 | 0.03 | 0.03 | 92 | 1014.0 |
| 20260505070936 | 15 | 88 | 1.6 | 1.6 | 0.00 | 0.00 | 0.00 | 92 | 1014.3 |
| 20260505070433 | 15 | 88 | 0.0 | 0.0 | 0.13 | 0.00 | 0.00 | 92 | 1014.3 |
| 20260505065928 | 15 | 88 | 0.0 | 1.6 | 0.13 | 0.81 | 0.81 | 92 | 1014.0 |
| 20260505065425 | 15 | 93 | 0.0 | 0.0 | 0.00 | 0.79 | 0.79 | 92 | 1014.0 |
| 20260505064922 | 15 | 104 | 0.0 | 0.0 | 0.18 | 0.79 | 0.79 | 92 | 1013.9 |
| 20260505064419 | 15 | 106 | 0.0 | 0.0 | 0.30 | 0.79 | 0.79 | 92 | 1014.3 |
| 20260505063917 | 15 | 106 | 0.0 | 0.0 | 0.13 | 0.76 | 0.76 | 92 | 1014.0 |
| 20260505063413 | 15 | 109 | 0.0 | 0.0 | 0.30 | 0.76 | 0.76 | 92 | 1014.0 |
| 20260505062910 | 15 | 113 | 1.6 | 1.6 | 0.30 | 0.74 | 0.74 | 92 | 1014.0 |
| 20260505062408 | 15 | 124 | 0.0 | 0.0 | 0.30 | 0.71 | 0.71 | 91 | 1013.9 |
| 20260505061904 | 15 | 126 | 1.6 | 1.6 | 0.36 | 0.69 | 0.69 | 90 | 1014.1 |
| 20260505061402 | 15 | 85 | 1.6 | 1.6 | 0.18 | 0.66 | 0.66 | 90 | 1014.2 |
| 20260505060859 | 15 | 82 | 0.0 | 0.0 | 0.13 | 0.64 | 0.64 | 89 | 1014.2 |
| 20260505060356 | 15 | 80 | 4.8 | 3.2 | 0.13 | 0.64 | 0.64 | 88 | 1014.2 |
| 20260505055852 | 15 | 100 | 1.6 | 1.6 | 0.00 | 0.61 | 0.61 | 88 | 1014.0 |
| 20260505055348 | 15 | 73 | 1.6 | 1.6 | 0.18 | 0.61 | 0.61 | 89 | 1014.0 |
| 20260505054846 | 15 | 86 | 0.0 | 0.0 | 0.18 | 0.61 | 0.61 | 89 | 1014.1 |
| 20260505054343 | 15 | 86 | 1.6 | 1.6 | 0.00 | 0.58 | 0.58 | 89 | 1013.5 |
| 20260505053841 | 15 | 109 | 1.6 | 1.6 | 0.00 | 0.58 | 0.58 | 89 | 1013.8 |
| 20260505053338 | 15 | 104 | 0.0 | 0.0 | 0.13 | 0.58 | 0.58 | 87 | 1013.9 |
| 20260505052834 | 15 | 108 | 0.0 | 0.0 | 0.13 | 0.58 | 0.58 | 87 | 1014.1 |
| 20260505052331 | 15 | 117 | 0.0 | 1.6 | 0.18 | 0.56 | 0.56 | 87 | 1014.1 |
| 20260505051828 | 15 | 121 | 1.6 | 1.6 | 0.18 | 0.56 | 0.56 | 88 | 1014.0 |
| 20260505051326 | 15 | 112 | 1.6 | 1.6 | 0.00 | 0.53 | 0.53 | 87 | 1013.9 |
| 20260505050824 | 15 | 73 | 0.0 | 0.0 | 0.00 | 0.53 | 0.53 | 87 | 1013.8 |
| 20260505050322 | 15 | 57 | 0.0 | 0.0 | 0.00 | 0.53 | 0.53 | 85 | 1014.0 |
| 20260505041746 | 15 | 96 | 0.0 | 0.0 | 0.00 | 0.51 | 0.51 | 81 | 1013.9 |
| 20260505041243 | 15 | 129 | 1.6 | 3.2 | 0.00 | 0.51 | 0.51 | 81 | 1014.0 |
| 20260505040741 | 15 | 221 | 0.0 | 0.0 | 0.00 | 0.51 | 0.51 | 80 | 1013.9 |
| 20260505040238 | 15 | 222 | 0.0 | 0.0 | 0.00 | 0.51 | 0.51 | 78 | 1013.9 |
| 20260505035735 | 15 | 176 | 3.2 | 3.2 | 0.00 | 0.51 | 0.51 | 80 | 1013.6 |
| 20260505035231 | 15 | 56 | 3.2 | 3.2 | 0.00 | 0.51 | 0.51 | 79 | 1013.5 |
| 20260505034728 | 15 | 115 | 3.2 | 4.8 | 0.00 | 0.51 | 0.51 | 79 | 1013.4 |
| 20260505034225 | 15 | 141 | 3.2 | 3.2 | 0.00 | 0.51 | 0.51 | 78 | 1013.4 |
| 20260505033721 | 15 | 76 | 6.4 | 8.0 | 0.00 | 0.51 | 0.51 | 78 | 1013.1 |
| 20260505033219 | 15 | 182 | 3.2 | 3.2 | 0.00 | 0.51 | 0.51 | 80 | 1013.2 |
| 20260505032717 | 14 | 124 | 0.0 | 0.0 | 0.00 | 0.51 | 0.51 | 80 | 1013.1 |
| 20260505032212 | 14 | 86 | 1.6 | 1.6 | 0.18 | 0.51 | 0.51 | 80 | 1013.0 |
| 20260505031710 | 14 | 88 | 3.2 | 3.2 | 0.18 | 0.51 | 0.51 | 80 | 1013.0 |
| 20260505031206 | 14 | 54 | 6.4 | 8.0 | 0.00 | 0.48 | 0.48 | 79 | 1013.0 |
| 20260505030703 | 14 | 61 | 3.2 | 3.2 | 0.13 | 0.48 | 0.48 | 80 | 1013.1 |
| 20260505030159 | 14 | 80 | 4.8 | 4.8 | 0.13 | 0.48 | 0.48 | 80 | 1013.5 |
| 20260505025655 | 14 | 93 | 6.4 | 8.0 | 0.18 | 0.46 | 0.46 | 82 | 1013.8 |
| 20260505025154 | 14 | 61 | 3.2 | 3.2 | 0.30 | 0.46 | 0.46 | 84 | 1014.1 |
| 20260505024651 | 15 | 78 | 1.6 | 1.6 | 0.13 | 0.43 | 0.43 | 83 | 1014.4 |
| 20260505024148 | 15 | 81 | 3.2 | 3.2 | 0.18 | 0.41 | 0.41 | 82 | 1014.3 |
| 20260505023646 | 15 | 94 | 1.6 | 3.2 | 0.30 | 0.41 | 0.41 | 77 | 1014.1 |
| 20260505023143 | 15 | 78 | 1.6 | 1.6 | 0.30 | 0.38 | 0.38 | 77 | 1014.0 |
| 20260505022640 | 15 | 121 | 1.6 | 1.6 | 0.18 | 0.36 | 0.36 | 74 | 1014.1 |
| 20260505022137 | 15 | 117 | 3.2 | 3.2 | 0.18 | 0.33 | 0.33 | 74 | 1013.9 |
| 20260505021634 | 15 | 111 | 1.6 | 1.6 | 0.18 | 0.33 | 0.33 | 79 | 1014.2 |
| 20260505021131 | 15 | 150 | 1.6 | 1.6 | 0.43 | 0.30 | 0.30 | 80 | 1014.2 |
| 20260505020626 | 16 | 41 | 3.2 | 3.2 | 0.71 | 0.30 | 0.30 | 80 | 1013.8 |
| 20260505020122 | 16 | 20 | 1.6 | 1.6 | 0.61 | 0.23 | 0.23 | 73 | 1013.9 |
| 20260505015620 | 16 | 63 | 0.0 | 0.0 | 0.30 | 0.18 | 0.18 | 79 | 1014.0 |
| 20260505015116 | 16 | 43 | 0.0 | 0.0 | 0.43 | 0.15 | 0.15 | 73 | 1013.6 |
| 20260505014613 | 17 | 43 | 0.0 | 0.0 | 0.30 | 0.13 | 0.13 | 70 | 1013.6 |
| 20260505014110 | 17 | 43 | 0.0 | 0.0 | 0.00 | 0.08 | 0.08 | 67 | 1013.6 |
| 20260505013608 | 17 | 43 | 0.0 | 0.0 | 0.18 | 0.08 | 0.08 | 66 | 1013.9 |
| 20260505013105 | 17 | 8 | 0.0 | 0.0 | 0.18 | 0.08 | 0.08 | 68 | 1013.3 |
| 20260505012603 | 17 | 4 | 0.0 | 0.0 | 0.00 | 0.05 | 0.05 | 68 | 1013.2 |
| 20260505012059 | 17 | 53 | 0.0 | 0.0 | 0.00 | 0.05 | 0.05 | 65 | 1013.0 |
| 20260505011555 | 17 | 10 | 1.6 | 1.6 | 0.00 | 0.05 | 0.05 | 67 | 1012.7 |
| 20260505011053 | 18 | 16 | 1.6 | 1.6 | 0.13 | 0.05 | 0.05 | 66 | 1012.7 |
| 20260505010548 | 18 | 27 | 0.0 | 0.0 | 0.13 | 0.05 | 0.05 | 63 | 1012.5 |
| 20260505010044 | 18 | 36 | 1.6 | 1.6 | 0.00 | 0.03 | 0.03 | 56 | 1012.5 |
| 20260505005540 | 18 | 241 | 0.0 | 0.0 | 0.00 | 0.03 | 0.03 | 54 | 1013.0 |
| 20260505005038 | 19 | 240 | 0.0 | 0.0 | 0.00 | 0.03 | 0.03 | 53 | 1012.8 |
| 20260505004535 | 19 | 238 | 1.6 | 0.0 | 0.00 | 0.03 | 0.03 | 51 | 1012.9 |
| 20260505004032 | 20 | 314 | 0.0 | 0.0 | 0.18 | 0.03 | 0.03 | 48 | 1012.8 |
| 20260505003529 | 20 | 287 | 0.0 | 0.0 | 0.18 | 0.03 | 0.03 | 53 | 1012.8 |
| 20260505003027 | 20 | 291 | 0.0 | 0.0 | 0.00 | 0.00 | 0.00 | 49 | 1013.1 |
| 20260505002526 | 20 | 271 | 0.0 | 0.0 | 0.00 | 0.00 | 0.00 | 49 | 1012.6 |
| 20260505002026 | 20 | 303 | 0.0 | 1.6 | 0.00 | 0.00 | 0.00 | 46 | 1012.8 |
| 20260505001523 | 21 | 295 | 1.6 | 3.2 | 0.00 | 0.00 | 0.00 | 41 | 1012.7 |
| 20260505001020 | 22 | 345 | 0.0 | 0.0 | 0.00 | 0.00 | 0.00 | 40 | 1012.6 |
| 20260505000517 | 22 | 267 | 1.6 | 3.2 | 0.00 | 0.00 | 0.00 | 34 | 1012.2 |
| 20260505000015 | 22 | 301 | 3.2 | 4.8 | 0.00 | 0.00 | 0.00 | 32 | 1012.5 |
| 20260504235511 | 22 | 307 | 4.8 | 8.0 | 0.00 | 0.00 | 0.00 | 30 | 1012.1 |
| 20260504235008 | 22 | 293 | 1.6 | 3.2 | 0.00 | 0.00 | 0.00 | 30 | 1011.5 |
| 20260504234505 | 22 | 301 | 3.2 | 4.8 | 0.00 | 0.00 | 0.00 | 30 | 1011.7 |
| 20260504234002 | 22 | 299 | 4.8 | 8.0 | 0.00 | 0.00 | 0.00 | 30 | 1011.9 |
| 20260504233457 | 23 | 319 | 9.7 | 11.3 | 0.00 | 0.00 | 0.00 | 29 | 1012.0 |
| 20260504232954 | 23 | 342 | 4.8 | 4.8 | 0.00 | 0.00 | 0.00 | 29 | 1012.2 |
| 20260504232451 | 23 | 253 | 9.7 | 14.5 | 0.00 | 0.00 | 0.00 | 28 | 1012.4 |
| 20260504231949 | 23 | 298 | 11.3 | 12.9 | 0.00 | 0.00 | 0.00 | 28 | 1012.5 |
| 20260504231445 | 24 | 295 | 8.0 | 8.0 | 0.00 | 0.00 | 0.00 | 27 | 1012.6 |
| 20260504230941 | 25 | 308 | 8.0 | 9.7 | 0.00 | 0.00 | 0.00 | 23 | 1012.1 |
| 20260504230438 | 25 | 272 | 9.7 | 12.9 | 0.00 | 0.00 | 0.00 | 23 | 1012.1 |
| 20260504225937 | 25 | 309 | 6.4 | 14.5 | 0.00 | 0.00 | 0.00 | 22 | 1011.8 |
| 20260504225433 | 25 | 255 | 4.8 | 4.8 | 0.00 | 0.00 | 0.00 | 22 | 1011.8 |
| 20260504224931 | 25 | 280 | 6.4 | 8.0 | 0.00 | 0.00 | 0.00 | 21 | 1011.7 |
| 20260504224427 | 26 | 292 | 9.7 | 12.9 | 0.00 | 0.00 | 0.00 | 21 | 1011.7 |
| 20260504223924 | 26 | 282 | 11.3 | 16.1 | 0.00 | 0.00 | 0.00 | 20 | 1011.5 |
| 20260504223420 | 26 | 283 | 8.0 | 11.3 | 0.00 | 0.00 | 0.00 | 19 | 1011.8 |
| 20260504222916 | 26 | 280 | 8.0 | 9.7 | 0.00 | 0.00 | 0.00 | 19 | 1011.7 |
| 20260504222414 | 26 | 324 | 4.8 | 4.8 | 0.00 | 0.00 | 0.00 | 20 | 1011.6 |
| 20260504221911 | 26 | 341 | 8.0 | 11.3 | 0.00 | 0.00 | 0.00 | 19 | 1011.7 |
| 20260504221408 | 26 | 319 | 3.2 | 3.2 | 0.00 | 0.00 | 0.00 | 19 | 1011.5 |
| 20260504220905 | 26 | 312 | 8.0 | 9.7 | 0.00 | 0.00 | 0.00 | 18 | 1011.7 |
| 20260504220402 | 26 | 304 | 4.8 | 4.8 | 0.00 | 0.00 | 0.00 | 18 | 1011.7 |
| 20260504215859 | 27 | 303 | 8.0 | 11.3 | 0.00 | 0.00 | 0.00 | 18 | 1011.6 |
| 20260504215355 | 27 | 289 | 6.4 | 9.7 | 0.00 | 0.00 | 0.00 | 18 | 1011.8 |
| 20260504214851 | 27 | 270 | 14.5 | 16.1 | 0.00 | 0.00 | 0.00 | 18 | 1011.6 |
| 20260504214348 | 27 | 6 | 4.8 | 4.8 | 0.00 | 0.00 | 0.00 | 19 | 1011.6 |
| 20260504213845 | 27 | 277 | 4.8 | 8.0 | 0.00 | 0.00 | 0.00 | 18 | 1011.4 |
| 20260504213341 | 27 | 294 | 8.0 | 11.3 | 0.00 | 0.00 | 0.00 | 18 | 1011.4 |
| 20260504212838 | 28 | 294 | 4.8 | 4.8 | 0.00 | 0.00 | 0.00 | 19 | 1011.4 |
| 20260504212334 | 28 | 308 | 4.8 | 4.8 | 0.00 | 0.00 | 0.00 | 17 | 1011.5 |
| 20260504211832 | 28 | 312 | 3.2 | 4.8 | 0.00 | 0.00 | 0.00 | 17 | 1011.5 |
| 20260504211328 | 28 | 310 | 1.6 | 3.2 | 0.00 | 0.00 | 0.00 | 16 | 1011.4 |
| 20260504210826 | 28 | 253 | 3.2 | 4.8 | 0.00 | 0.00 | 0.00 | 16 | 1011.4 |
| 20260504210323 | 28 | 295 | 4.8 | 8.0 | 0.00 | 0.00 | 0.00 | 16 | 1011.7 |
| 20260504205820 | 28 | 247 | 8.0 | 9.7 | 0.00 | 0.00 | 0.00 | 16 | 1011.6 |
| 20260504205317 | 28 | 296 | 8.0 | 11.3 | 0.00 | 0.00 | 0.00 | 16 | 1011.7 |
| 20260504204815 | 28 | 260 | 4.8 | 4.8 | 0.00 | 0.00 | 0.00 | 16 | 1011.5 |
| 20260504204314 | 28 | 265 | 3.2 | 3.2 | 0.00 | 0.00 | 0.00 | 16 | 1011.5 |
| 20260504203813 | 28 | 260 | 6.4 | 8.0 | 0.00 | 0.00 | 0.00 | 16 | 1011.6 |
| 20260504203309 | 28 | 276 | 4.8 | 3.2 | 0.00 | 0.00 | 0.00 | 16 | 1011.6 |
| 20260504202804 | 28 | 209 | 6.4 | 8.0 | 0.00 | 0.00 | 0.00 | 15 | 1011.9 |
| 20260504202304 | 28 | 244 | 3.2 | 8.0 | 0.00 | 0.00 | 0.00 | 17 | 1011.8 |
| 20260504201759 | 28 | 284 | 4.8 | 4.8 | 0.00 | 0.00 | 0.00 | 17 | 1011.8 |
| 20260504201256 | 28 | 257 | 4.8 | 4.8 | 0.00 | 0.00 | 0.00 | 17 | 1011.8 |
| 20260504200754 | 28 | 251 | 1.6 | 3.2 | 0.00 | 0.00 | 0.00 | 18 | 1012.1 |
| 20260504200249 | 28 | 212 | 3.2 | 3.2 | 0.00 | 0.00 | 0.00 | 17 | 1011.9 |
| 20260504195746 | 28 | 216 | 4.8 | 4.8 | 0.00 | 0.00 | 0.00 | 17 | 1011.9 |
| 20260504195242 | 28 | 262 | 3.2 | 3.2 | 0.00 | 0.00 | 0.00 | 18 | 1011.9 |
| 20260504194739 | 27 | 359 | 1.6 | 1.6 | 0.00 | 0.00 | 0.00 | 18 | 1011.9 |
| 20260504194235 | 27 | 273 | 4.8 | 8.0 | 0.00 | 0.00 | 0.00 | 18 | 1011.8 |
| 20260504193732 | 27 | 1 | 1.6 | 1.6 | 0.00 | 0.00 | 0.00 | 20 | 1011.9 |
| 20260504193229 | 27 | 248 | 1.6 | 1.6 | 0.00 | 0.00 | 0.00 | 19 | 1012.1 |
| 20260504192727 | 27 | 350 | 3.2 | 3.2 | 0.00 | 0.00 | 0.00 | 20 | 1012.1 |
| 20260504192225 | 27 | 82 | 0.0 | 0.0 | 0.00 | 0.00 | 0.00 | 20 | 1011.9 |
| 20260504191724 | 27 | 142 | 4.8 | 4.8 | 0.00 | 0.00 | 0.00 | 20 | 1012.1 |
| 20260504191220 | 27 | 207 | 4.8 | 8.0 | 0.00 | 0.00 | 0.00 | 20 | 1012.1 |
| 20260504190715 | 27 | 149 | 0.0 | 0.0 | 0.00 | 0.00 | 0.00 | 20 | 1012.4 |
| 20260504190212 | 26 | 203 | 3.2 | 3.2 | 0.00 | 0.00 | 0.00 | 21 | 1012.0 |
| 20260504185709 | 26 | 296 | 6.4 | 9.7 | 0.00 | 0.00 | 0.00 | 21 | 1012.1 |
| 20260504185206 | 27 | 239 | 4.8 | 3.2 | 0.00 | 0.00 | 0.00 | 21 | 1012.4 |
| 20260504184702 | 26 | 251 | 4.8 | 8.0 | 0.00 | 0.00 | 0.00 | 21 | 1012.6 |
| 20260504184157 | 26 | 344 | 1.6 | 1.6 | 0.00 | 0.00 | 0.00 | 22 | 1012.4 |
| 20260504183654 | 26 | 296 | 3.2 | 3.2 | 0.00 | 0.00 | 0.00 | 23 | 1012.6 |
| 20260504183151 | 26 | 68 | 1.6 | 1.6 | 0.00 | 0.00 | 0.00 | 22 | 1012.6 |
| 20260504182649 | 26 | 163 | 4.8 | 4.8 | 0.00 | 0.00 | 0.00 | 22 | 1012.6 |
| 20260504182146 | 26 | 212 | 4.8 | 4.8 | 0.00 | 0.00 | 0.00 | 22 | 1012.9 |
| 20260504181643 | 26 | 259 | 3.2 | 3.2 | 0.00 | 0.00 | 0.00 | 22 | 1012.6 |
| 20260504181141 | 26 | 274 | 6.4 | 11.3 | 0.00 | 0.00 | 0.00 | 22 | 1013.0 |
| 20260504180640 | 26 | 215 | 8.0 | 11.3 | 0.00 | 0.00 | 0.00 | 22 | 1012.9 |
| 20260504180138 | 26 | 141 | 0.0 | 0.0 | 0.00 | 0.00 | 0.00 | 22 | 1012.8 |
| 20260504175635 | 26 | 206 | 4.8 | 8.0 | 0.00 | 0.00 | 0.00 | 23 | 1013.0 |
| 20260504175131 | 26 | 202 | 3.2 | 4.8 | 0.00 | 0.00 | 0.00 | 22 | 1013.1 |
| 20260504174630 | 25 | 166 | 1.6 | 1.6 | 0.00 | 0.00 | 0.00 | 23 | 1013.1 |
| 20260504174126 | 25 | 207 | 6.4 | 8.0 | 0.00 | 0.00 | 0.00 | 23 | 1013.4 |
| 20260504173623 | 25 | 184 | 6.4 | 4.8 | 0.00 | 0.00 | 0.00 | 23 | 1013.0 |
| 20260504173121 | 25 | 191 | 3.2 | 3.2 | 0.00 | 0.00 | 0.00 | 23 | 1013.0 |
| 20260504172617 | 25 | 245 | 6.4 | 8.0 | 0.00 | 0.00 | 0.00 | 23 | 1013.0 |
| 20260504172114 | 25 | 221 | 3.2 | 3.2 | 0.00 | 0.00 | 0.00 | 24 | 1013.2 |
| 20260504171610 | 25 | 193 | 6.4 | 8.0 | 0.00 | 0.00 | 0.00 | 24 | 1013.2 |
| 20260504171108 | 25 | 227 | 6.4 | 8.0 | 0.00 | 0.00 | 0.00 | 23 | 1013.2 |
| 20260504170603 | 25 | 260 | 14.5 | 16.1 | 0.00 | 0.00 | 0.00 | 23 | 1013.0 |
| 20260504150947 | 23 | 196 | 4.8 | 4.8 | 0.00 | 0.00 | 0.00 | 29 | 1013.0 |
| 20260504150443 | 24 | 136 | 1.6 | 3.2 | 0.00 | 0.00 | 0.00 | 29 | 1013.2 |